Location: ???
(60.6398°N, 46.9067°E)
Time: 18:24:57
(UTC+00:00)

NOAA 15 - Pass Details

Date: 08 December 2019
Orbit: 798 x 812 km, 98.7° (Epoch: 16 January)

Event Time Altitude Azimuth Distance (km) Brightness Sun altitude
Rises 14:26:03 0° 149° (SSE) 3,310 7.6 -17.5°
Reaches altitude 10° 14:28:23 10° 147° (SSE) 2,381 6.9 -17.8°
Maximum altitude 14:33:37 69° 65° (ENE) 861 4.5 -18.4°
Drops below altitude 10° 14:38:51 10° 344° (NNW) 2,389 7.1 -19.0°
Sets 14:41:12 0° 342° (NNW) 3,322 7.9 -19.3°
